OPS 4682 DEB, 55117

Orbit data source: Space-Track

OPS 4682 DEB, 55117 is space debris in LEO originally from a launch on Sat, 03 Apr 1965 UTC launched from the Air Force Western Test Range (AFWTR). Debris objects in space refer to the collection of defunct objects orbiting the Earth. Examples of debris include non-operational satellites, rocket bodies, and fragments generated from explosions, collisions, or faulty payload assembly.

Loading next visibility...
Identifier
55117, 1965-027HG
Orbit
LEO
Country
Flag of USUS
Related business
Manufacturer
Unknown
Mission
Spacecraft
Bus & Motor
Unknown
Mass
Unknown
Launch date (UTC)
1965-04-03 (61 years ago)
Launch vehicle
Unknown
Launch site
Air Force Western Test Range (AFWTR)
Object type
Payload
Rocket body
Debris
Shape & HBR
Unknown
Radar Cross Section
Medium (>0.1 m² and <1 m²)

Expand to show TLE details & history
Last TLE update: 2 days ago

TLE from 2 days ago
0 OPS 4682 DEB
1 55117U 65027HG  26206.42616717  .00000246  00000-0  86579-3 0  9999
2 55117  90.2454  10.0313 0031763 135.3335 225.0350 12.93717997513861
Epoch: 2026-07-25T10:13Z
TLE epoch observation values (Epoch: 2026-07-25T10:13:40.843Z)
Latitude
-0.00005°
Longitude
-86.5275°
Altitude
1,306.921 km
Speed
7.195 km/s
True Right ascension
00h 40m 07s
True Declination
0° 00' 00"
Sunlit
Object was in daylight at epoch
Visualization orbit readout
Latitude
Unknown
Longitude
Unknown
Altitude
Unknown
Speed
Unknown
Apparent Right ascension
Unknown
Apparent Declination
Unknown
Sunlit
N/A
Visualization observer readout
Local Sidereal Time
23:11:16
Azimuth
Unknown
Elevation
Unknown
Doppler factor
Unknown
Orbital elements
Apogee altitude
1,308.273 km
Perigee altitude
1,259.599 km
Semi-major axis
7,662.073 km
Eccentricity
0.00318
Inclination
90.2454°
RAAN
10.0313°
Arg. of periapsis
135.3335°
True anomaly
224.77819°
Mean anomaly
225.035°
Eccentric anomaly
224.90652°
Mean motion
3.23611 °/min
Orbital period
111.24 mins
BSTAR
0.00086579
Loading maneuver chart data...
Computing Atmospheric mass density...
Loading historical data...
Loading historical data...
Loading historical data...
Loading historical data...
Loading historical data...
Loading historical data...
Loading historical data...

Documentation

Showing up to 5 results
|